Location: Boitzum
(52.1496°N, 9.6943°E)
Time: 06:38:56
(UTC+00:00)

COSMO-SKYMED 1 - Pass Details

Date: 13 January 2026
Orbit: 577 x 579 km, 97.9° (Epoch: 18 February)

Event Time Altitude Azimuth Distance (km) Brightness Sun altitude
Rises 03:59:45 0° 143° (SE) 2,793 6.3 -30.5°
Reaches altitude 10° 04:01:59 10° 135° (SE) 1,898 5.5 -30.2°
Enters shadow 04:05:12 36° 89° (E) 931 3.9 -29.7°
